Data supplied by UK-AIR on 28/4/2023
All Data GMT hour ending 
Status: R =Ratified P=Provisional,P*=As supplied
,,West Bromwich Kenrick Park,,,,,,,,,,,,,,,,,,,,,,,
Date,time,"Nitric oxide",status,unit,"Nitrogen dioxide",status,unit,"Nitrogen oxides as nitrogen dioxide",status,unit
 
01-01-2022,01:00,0.41235,R,ugm-3,4.69594,R,ugm-3,5.32820,R,ugm-3
01-01-2022,02:00,0.68725,R,ugm-3,4.76519,R,ugm-3,5.81896,R,ugm-3
01-01-2022,03:00,0.79033,R,ugm-3,3.57304,R,ugm-3,4.78487,R,ugm-3
01-01-2022,04:00,0.54980,R,ugm-3,2.99540,R,ugm-3,3.83841,R,ugm-3
01-01-2022,05:00,0.65288,R,ugm-3,2.31152,R,ugm-3,3.31260,R,ugm-3
01-01-2022,06:00,0.75597,R,ugm-3,2.15346,R,ugm-3,3.31260,R,ugm-3
01-01-2022,07:00,0.58416,R,ugm-3,2.83755,R,ugm-3,3.73325,R,ugm-3
01-01-2022,08:00,0.92778,R,ugm-3,3.83551,R,ugm-3,5.25809,R,ugm-3
01-01-2022,09:00,0.82470,R,ugm-3,4.09874,R,ugm-3,5.36325,R,ugm-3
01-01-2022,10:00,0.85906,R,ugm-3,4.51928,R,ugm-3,5.83648,R,ugm-3
01-01-2022,11:00,1.51194,R,ugm-3,5.56886,R,ugm-3,7.88714,R,ugm-3
01-01-2022,12:00,1.54630,R,ugm-3,7.09360,R,ugm-3,9.46457,R,ugm-3
01-01-2022,13:00,1.99301,R,ugm-3,7.82834,R,ugm-3,10.88425,R,ugm-3
01-01-2022,14:00,1.88993,R,ugm-3,7.35543,R,ugm-3,10.25328,R,ugm-3
01-01-2022,15:00,1.99301,R,ugm-3,7.82834,R,ugm-3,10.88425,R,ugm-3
01-01-2022,16:00,1.40885,R,ugm-3,7.72500,R,ugm-3,9.88521,R,ugm-3
01-01-2022,17:00,1.34013,R,ugm-3,8.56651,R,ugm-3,10.62135,R,ugm-3
01-01-2022,18:00,1.13396,R,ugm-3,8.98780,R,ugm-3,10.72651,R,ugm-3
01-01-2022,19:00,1.44322,R,ugm-3,10.40652,R,ugm-3,12.61942,R,ugm-3
01-01-2022,20:00,1.58067,R,ugm-3,10.14319,R,ugm-3,12.56684,R,ugm-3
01-01-2022,21:00,1.16832,R,ugm-3,9.46092,R,ugm-3,11.25232,R,ugm-3
01-01-2022,22:00,1.20268,R,ugm-3,9.30307,R,ugm-3,11.14716,R,ugm-3
01-01-2022,23:00,0.99651,R,ugm-3,7.46338,R,ugm-3,8.99134,R,ugm-3
01-01-2022,24:00,0.99651,R,ugm-3,5.93854,R,ugm-3,7.46649,R,ugm-3
02-01-2022,01:00,0.68795,R,ugm-3,4.48858,R,ugm-3,5.54342,R,ugm-3
02-01-2022,02:00,0.55036,R,ugm-3,3.22598,R,ugm-3,4.06985,R,ugm-3
02-01-2022,03:00,0.41277,R,ugm-3,3.31415,R,ugm-3,3.94705,R,ugm-3
02-01-2022,04:00,0.41277,R,ugm-3,3.05102,R,ugm-3,3.68392,R,ugm-3
02-01-2022,05:00,0.37837,R,ugm-3,2.94588,R,ugm-3,3.52603,R,ugm-3
02-01-2022,06:00,0.41277,R,ugm-3,4.05094,R,ugm-3,4.68384,R,ugm-3
02-01-2022,07:00,0.68795,R,ugm-3,3.99739,R,ugm-3,5.05223,R,ugm-3
02-01-2022,08:00,0.82553,R,ugm-3,5.04948,R,ugm-3,6.31529,R,ugm-3
02-01-2022,09:00,0.89433,R,ugm-3,5.10188,R,ugm-3,6.47317,R,ugm-3
02-01-2022,10:00,1.20391,R,ugm-3,7.89010,R,ugm-3,9.73606,R,ugm-3
02-01-2022,11:00,1.71986,R,ugm-3,8.62517,R,ugm-3,11.26226,R,ugm-3
02-01-2022,12:00,2.51100,R,ugm-3,8.46466,R,ugm-3,12.31481,R,ugm-3
02-01-2022,13:00,2.64859,R,ugm-3,10.56930,R,ugm-3,14.63041,R,ugm-3
02-01-2022,14:00,2.75178,R,ugm-3,14.04236,R,ugm-3,18.26170,R,ugm-3
02-01-2022,15:00,2.68299,R,ugm-3,13.72682,R,ugm-3,17.84068,R,ugm-3
02-01-2022,16:00,2.30462,R,ugm-3,14.99114,R,ugm-3,18.52484,R,ugm-3
02-01-2022,17:00,2.68299,R,ugm-3,18.04227,R,ugm-3,22.15612,R,ugm-3
02-01-2022,18:00,1.75426,R,ugm-3,14.04568,R,ugm-3,16.73551,R,ugm-3
02-01-2022,19:00,1.41029,R,ugm-3,9.04722,R,ugm-3,11.20963,R,ugm-3
02-01-2022,20:00,1.54788,R,ugm-3,8.46786,R,ugm-3,10.84124,R,ugm-3
02-01-2022,21:00,1.03192,R,ugm-3,7.89068,R,ugm-3,9.47293,R,ugm-3
02-01-2022,22:00,1.03192,R,ugm-3,6.04872,R,ugm-3,7.63097,R,ugm-3
02-01-2022,23:00,0.75674,R,ugm-3,4.41818,R,ugm-3,5.57850,R,ugm-3
02-01-2022,24:00,0.75674,R,ugm-3,4.10242,R,ugm-3,5.26274,R,ugm-3
03-01-2022,01:00,0.96410,R,ugm-3,2.52494,R,ugm-3,4.00321,R,ugm-3
03-01-2022,02:00,0.50501,R,ugm-3,1.96471,R,ugm-3,2.73904,R,ugm-3
03-01-2022,03:00,0.58535,R,ugm-3,1.26211,R,ugm-3,2.15963,R,ugm-3
03-01-2022,04:00,0.58535,R,ugm-3,1.36745,R,ugm-3,2.26497,R,ugm-3
03-01-2022,05:00,0.61978,R,ugm-3,1.42000,R,ugm-3,2.37032,R,ugm-3
03-01-2022,06:00,0.75751,R,ugm-3,2.63102,R,ugm-3,3.79252,R,ugm-3
03-01-2022,07:00,1.68718,R,ugm-3,4.68201,R,ugm-3,7.26899,R,ugm-3
03-01-2022,08:00,1.17070,R,ugm-3,5.36860,R,ugm-3,7.16364,R,ugm-3
03-01-2022,09:00,1.34286,R,ugm-3,11.84687,R,ugm-3,13.90589,R,ugm-3
03-01-2022,10:00,2.10037,R,ugm-3,10.26398,R,ugm-3,13.48450,R,ugm-3
03-01-2022,11:00,2.34139,R,ugm-3,9.73639,R,ugm-3,13.32648,R,ugm-3
03-01-2022,12:00,2.78901,R,ugm-3,14.10674,R,ugm-3,18.38316,R,ugm-3
03-01-2022,13:00,3.54652,R,ugm-3,15.78963,R,ugm-3,21.22755,R,ugm-3
03-01-2022,14:00,4.16630,R,ugm-3,20.31739,R,ugm-3,26.70563,R,ugm-3
03-01-2022,15:00,2.82344,R,ugm-3,16.31892,R,ugm-3,20.64814,R,ugm-3
03-01-2022,16:00,2.99561,R,ugm-3,17.89853,R,ugm-3,22.49172,R,ugm-3
03-01-2022,17:00,2.41026,R,ugm-3,18.53268,R,ugm-3,22.22835,R,ugm-3
03-01-2022,18:00,2.16923,R,ugm-3,18.00679,R,ugm-3,21.33290,R,ugm-3
03-01-2022,19:00,1.79048,R,ugm-3,14.37363,R,ugm-3,17.11899,R,ugm-3
03-01-2022,20:00,2.16923,R,ugm-3,14.89904,R,ugm-3,18.22514,R,ugm-3
03-01-2022,21:00,1.54945,R,ugm-3,15.26994,R,ugm-3,17.64573,R,ugm-3
03-01-2022,22:00,1.48059,R,ugm-3,13.00521,R,ugm-3,15.27541,R,ugm-3
03-01-2022,23:00,1.34286,R,ugm-3,15.32334,R,ugm-3,17.38236,R,ugm-3
03-01-2022,24:00,0.92967,R,ugm-3,16.11491,R,ugm-3,17.54038,R,ugm-3
04-01-2022,01:00,0.55148,R,ugm-3,7.94113,R,ugm-3,8.78671,R,ugm-3
04-01-2022,02:00,0.82721,R,ugm-3,10.33008,R,ugm-3,11.59846,R,ugm-3
04-01-2022,03:00,0.58594,R,ugm-3,8.96026,R,ugm-3,9.85869,R,ugm-3
04-01-2022,04:00,0.62041,R,ugm-3,9.75093,R,ugm-3,10.70222,R,ugm-3
04-01-2022,05:00,0.48254,R,ugm-3,6.11375,R,ugm-3,6.85364,R,ugm-3
04-01-2022,06:00,0.79275,R,ugm-3,7.74692,R,ugm-3,8.96245,R,ugm-3
04-01-2022,07:00,1.37869,R,ugm-3,8.32465,R,ugm-3,10.43861,R,ugm-3
04-01-2022,08:00,3.23992,R,ugm-3,19.96888,R,ugm-3,24.93669,R,ugm-3
04-01-2022,09:00,3.23992,R,ugm-3,27.77148,R,ugm-3,32.73929,R,ugm-3
04-01-2022,10:00,5.20455,R,ugm-3,27.97503,R,ugm-3,35.95523,R,ugm-3
04-01-2022,11:00,4.44627,R,ugm-3,21.49326,R,ugm-3,28.31079,R,ugm-3
04-01-2022,12:00,5.65263,R,ugm-3,23.22853,R,ugm-3,31.89577,R,ugm-3
04-01-2022,13:00,5.41135,R,ugm-3,18.22100,R,ugm-3,26.51830,R,ugm-3
04-01-2022,14:00,4.13607,R,ugm-3,14.00815,R,ugm-3,20.35003,R,ugm-3
04-01-2022,15:00,2.79185,R,ugm-3,12.43156,R,ugm-3,16.71233,R,ugm-3
04-01-2022,16:00,2.89525,R,ugm-3,20.60281,R,ugm-3,25.04213,R,ugm-3
04-01-2022,17:00,3.68799,R,ugm-3,35.62513,R,ugm-3,41.27997,R,ugm-3
04-01-2022,18:00,4.37734,R,ugm-3,34.77903,R,ugm-3,41.49086,R,ugm-3
04-01-2022,19:00,3.92926,R,ugm-3,24.55297,R,ugm-3,30.57776,R,ugm-3
04-01-2022,20:00,2.34377,R,ugm-3,15.28013,R,ugm-3,18.87386,R,ugm-3
04-01-2022,21:00,1.41316,R,ugm-3,14.33464,R,ugm-3,16.50145,R,ugm-3
04-01-2022,22:00,1.55103,R,ugm-3,10.96002,R,ugm-3,13.33823,R,ugm-3
04-01-2022,23:00,2.03357,R,ugm-3,8.05861,R,ugm-3,11.17670,R,ugm-3
04-01-2022,24:00,0.89615,R,ugm-3,6.27037,R,ugm-3,7.64444,R,ugm-3
05-01-2022,01:00,0.69004,R,ugm-3,5.34431,R,ugm-3,6.40236,R,ugm-3
05-01-2022,02:00,0.59804,R,ugm-3,3.37472,R,ugm-3,4.29169,R,ugm-3
05-01-2022,03:00,0.41403,R,ugm-3,3.53374,R,ugm-3,4.16857,R,ugm-3
05-01-2022,04:00,0.37953,R,ugm-3,3.95601,R,ugm-3,4.53794,R,ugm-3
05-01-2022,05:00,0.65554,R,ugm-3,4.74642,R,ugm-3,5.75157,R,ugm-3
05-01-2022,06:00,1.89762,R,ugm-3,8.38243,R,ugm-3,11.29208,R,ugm-3
05-01-2022,07:00,3.82974,R,ugm-3,19.87797,R,ugm-3,25.75016,R,ugm-3
05-01-2022,08:00,10.86819,R,ugm-3,41.64290,R,ugm-3,58.30723,R,ugm-3
05-01-2022,09:00,9.17759,R,ugm-3,40.27762,R,ugm-3,54.34973,R,ugm-3
05-01-2022,10:00,5.38234,R,ugm-3,30.16136,R,ugm-3,38.41418,R,ugm-3
05-01-2022,11:00,4.96832,R,ugm-3,23.88375,R,ugm-3,31.50173,R,ugm-3
05-01-2022,12:00,4.83031,R,ugm-3,16.02206,R,ugm-3,23.42843,R,ugm-3
05-01-2022,13:00,4.17477,R,ugm-3,15.76081,R,ugm-3,22.16202,R,ugm-3
05-01-2022,14:00,5.65836,R,ugm-3,16.01879,R,ugm-3,24.69483,R,ugm-3
05-01-2022,15:00,3.65723,R,ugm-3,20.93398,R,ugm-3,26.54166,R,ugm-3
05-01-2022,16:00,7.27996,R,ugm-3,36.06376,R,ugm-3,47.22622,R,ugm-3
05-01-2022,17:00,6.45191,R,ugm-3,47.14803,R,ugm-3,57.04083,R,ugm-3
05-01-2022,18:00,13.28335,R,ugm-3,65.37841,R,ugm-3,85.74592,R,ugm-3
05-01-2022,19:00,13.42136,R,ugm-3,64.48083,R,ugm-3,85.05996,R,ugm-3
05-01-2022,20:00,37.46939,R,ugm-3,70.82364,R,ugm-3,128.27590,R,ugm-3
05-01-2022,21:00,33.12211,R,ugm-3,63.87556,R,ugm-3,114.66209,R,ugm-3
05-01-2022,22:00,60.82738,R,ugm-3,62.81662,R,ugm-3,156.08397,R,ugm-3
05-01-2022,23:00,73.14466,R,ugm-3,63.24300,R,ugm-3,175.39659,R,ugm-3
05-01-2022,24:00,41.29913,R,ugm-3,56.40324,R,ugm-3,119.72769,R,ugm-3
06-01-2022,01:00,9.07177,R,ugm-3,46.29717,R,ugm-3,60.20702,R,ugm-3
06-01-2022,02:00,45.54302,R,ugm-3,48.04734,R,ugm-3,117.87900,R,ugm-3
06-01-2022,03:00,27.04261,R,ugm-3,45.62417,R,ugm-3,87.08892,R,ugm-3
06-01-2022,04:00,4.10992,R,ugm-3,29.13584,R,ugm-3,35.43764,R,ugm-3
06-01-2022,05:00,2.31399,R,ugm-3,23.70353,R,ugm-3,27.25160,R,ugm-3
06-01-2022,06:00,14.12571,R,ugm-3,47.68458,R,ugm-3,69.34370,R,ugm-3
06-01-2022,07:00,48.11028,R,ugm-3,60.90552,R,ugm-3,134.67359,R,ugm-3
06-01-2022,08:00,15.88710,R,ugm-3,49.47293,R,ugm-3,73.83282,R,ugm-3
06-01-2022,09:00,10.49930,R,ugm-3,42.94642,R,ugm-3,59.04513,R,ugm-3
06-01-2022,10:00,6.21669,R,ugm-3,27.59553,R,ugm-3,37.12766,R,ugm-3
06-01-2022,11:00,4.24807,R,ugm-3,19.04796,R,ugm-3,25.56158,R,ugm-3
06-01-2022,12:00,5.07697,R,ugm-3,22.53019,R,ugm-3,30.31476,R,ugm-3
06-01-2022,13:00,5.76771,R,ugm-3,24.74548,R,ugm-3,33.58918,R,ugm-3
06-01-2022,14:00,6.04401,R,ugm-3,21.36430,R,ugm-3,30.63164,R,ugm-3
06-01-2022,15:00,4.93882,R,ugm-3,17.88320,R,ugm-3,25.45595,R,ugm-3
06-01-2022,16:00,4.62798,R,ugm-3,18.94076,R,ugm-3,26.03689,R,ugm-3
06-01-2022,17:00,5.11150,R,ugm-3,24.74820,R,ugm-3,32.58573,R,ugm-3
06-01-2022,18:00,3.10835,R,ugm-3,21.37646,R,ugm-3,26.14252,R,ugm-3
06-01-2022,19:00,2.41760,R,ugm-3,20.95681,R,ugm-3,24.66375,R,ugm-3
06-01-2022,20:00,2.48668,R,ugm-3,19.53057,R,ugm-3,23.34342,R,ugm-3
06-01-2022,21:00,1.72686,R,ugm-3,18.84715,R,ugm-3,21.49496,R,ugm-3
06-01-2022,22:00,1.38149,R,ugm-3,12.51100,R,ugm-3,14.62925,R,ugm-3
06-01-2022,23:00,3.24650,R,ugm-3,13.40110,R,ugm-3,18.37898,R,ugm-3
06-01-2022,24:00,1.41603,R,ugm-3,7.17673,R,ugm-3,9.34793,R,ugm-3
07-01-2022,01:00,0.78364,R,ugm-3,6.33975,R,ugm-3,7.54131,R,ugm-3
07-01-2022,02:00,0.72602,R,ugm-3,7.45005,R,ugm-3,8.56326,R,ugm-3
07-01-2022,03:00,0.55315,R,ugm-3,5.86501,R,ugm-3,6.71317,R,ugm-3
07-01-2022,04:00,0.79516,R,ugm-3,6.70972,R,ugm-3,7.92894,R,ugm-3
07-01-2022,05:00,1.03717,R,ugm-3,8.03016,R,ugm-3,9.62045,R,ugm-3
07-01-2022,06:00,2.42005,R,ugm-3,14.73732,R,ugm-3,18.44801,R,ugm-3
07-01-2022,07:00,3.97580,R,ugm-3,26.51825,R,ugm-3,32.61439,R,ugm-3
07-01-2022,08:00,10.26793,R,ugm-3,49.74914,R,ugm-3,65.49307,R,ugm-3
07-01-2022,09:00,14.69316,R,ugm-3,60.03753,R,ugm-3,82.56673,R,ugm-3
07-01-2022,10:00,13.27571,R,ugm-3,48.83745,R,ugm-3,69.19325,R,ugm-3
07-01-2022,11:00,11.75453,R,ugm-3,35.47058,R,ugm-3,53.49394,R,ugm-3
07-01-2022,12:00,7.74416,R,ugm-3,28.77483,R,ugm-3,40.64905,R,ugm-3
07-01-2022,13:00,10.71737,R,ugm-3,36.90229,R,ugm-3,53.33536,R,ugm-3
07-01-2022,14:00,7.74416,R,ugm-3,37.17951,R,ugm-3,49.05373,R,ugm-3
07-01-2022,15:00,6.46499,R,ugm-3,27.56462,R,ugm-3,37.47747,R,ugm-3
07-01-2022,16:00,5.98098,R,ugm-3,29.25823,R,ugm-3,38.42895,R,ugm-3
07-01-2022,17:00,6.22299,R,ugm-3,30.15580,R,ugm-3,39.69758,R,ugm-3
07-01-2022,18:00,2.73120,R,ugm-3,27.31655,R,ugm-3,31.50434,R,ugm-3
07-01-2022,19:00,3.90665,R,ugm-3,26.09567,R,ugm-3,32.08579,R,ugm-3
07-01-2022,20:00,3.56093,R,ugm-3,36.72196,R,ugm-3,42.18198,R,ugm-3
07-01-2022,21:00,6.74157,R,ugm-3,53.14748,R,ugm-3,63.48441,R,ugm-3
07-01-2022,22:00,3.21521,R,ugm-3,34.76766,R,ugm-3,39.69758,R,ugm-3
07-01-2022,23:00,1.76318,R,ugm-3,22.51054,R,ugm-3,25.21404,R,ugm-3
07-01-2022,24:00,1.41746,R,ugm-3,24.04497,R,ugm-3,26.21837,R,ugm-3
08-01-2022,01:00,1.15357,R,ugm-3,18.61769,R,ugm-3,20.38647,R,ugm-3
08-01-2022,02:00,1.07282,R,ugm-3,10.78796,R,ugm-3,12.43293,R,ugm-3
08-01-2022,03:00,0.58832,R,ugm-3,5.23503,R,ugm-3,6.13711,R,ugm-3
08-01-2022,04:00,0.62293,R,ugm-3,4.65290,R,ugm-3,5.60804,R,ugm-3
08-01-2022,05:00,0.83057,R,ugm-3,7.61470,R,ugm-3,8.88822,R,ugm-3
08-01-2022,06:00,1.17664,R,ugm-3,7.98346,R,ugm-3,9.78762,R,ugm-3
08-01-2022,07:00,1.17664,R,ugm-3,6.23756,R,ugm-3,8.04172,R,ugm-3
08-01-2022,08:00,1.52271,R,ugm-3,8.24642,R,ugm-3,10.58121,R,ugm-3
08-01-2022,09:00,1.59193,R,ugm-3,9.93910,R,ugm-3,12.38002,R,ugm-3
08-01-2022,10:00,2.21486,R,ugm-3,10.72986,R,ugm-3,14.12592,R,ugm-3
08-01-2022,11:00,2.56093,R,ugm-3,13.21487,R,ugm-3,17.14157,R,ugm-3
08-01-2022,12:00,3.56453,R,ugm-3,15.59108,R,ugm-3,21.05662,R,ugm-3
08-01-2022,13:00,2.80318,R,ugm-3,18.13403,R,ugm-3,22.43218,R,ugm-3
08-01-2022,14:00,2.31868,R,ugm-3,16.65487,R,ugm-3,20.21012,R,ugm-3
08-01-2022,15:00,2.87239,R,ugm-3,27.86843,R,ugm-3,32.27271,R,ugm-3
08-01-2022,16:00,9.10167,R,ugm-3,54.02860,R,ugm-3,67.98430,R,ugm-3
08-01-2022,17:00,4.15286,R,ugm-3,34.05262,R,ugm-3,40.42024,R,ugm-3
08-01-2022,18:00,2.24946,R,ugm-3,13.00466,R,ugm-3,16.45379,R,ugm-3
08-01-2022,19:00,3.80678,R,ugm-3,17.81203,R,ugm-3,23.64902,R,ugm-3
08-01-2022,20:00,2.07643,R,ugm-3,11.68280,R,ugm-3,14.86661,R,ugm-3
08-01-2022,21:00,1.93800,R,ugm-3,11.10146,R,ugm-3,14.07302,R,ugm-3
08-01-2022,22:00,1.48811,R,ugm-3,9.19889,R,ugm-3,11.48062,R,ugm-3
08-01-2022,23:00,1.45350,R,ugm-3,7.50605,R,ugm-3,9.73472,R,ugm-3
08-01-2022,24:00,0.93439,R,ugm-3,5.49798,R,ugm-3,6.93070,R,ugm-3
09-01-2022,01:00,0.73903,R,ugm-3,4.02088,R,ugm-3,5.15405,R,ugm-3
09-01-2022,02:00,0.58892,R,ugm-3,3.86274,R,ugm-3,4.76573,R,ugm-3
09-01-2022,03:00,0.65820,R,ugm-3,4.39193,R,ugm-3,5.40116,R,ugm-3
09-01-2022,04:00,0.65820,R,ugm-3,5.39803,R,ugm-3,6.40726,R,ugm-3
09-01-2022,05:00,0.72748,R,ugm-3,6.45675,R,ugm-3,7.57221,R,ugm-3
09-01-2022,06:00,0.69284,R,ugm-3,8.73387,R,ugm-3,9.79622,R,ugm-3
09-01-2022,07:00,0.76213,R,ugm-3,12.06955,R,ugm-3,13.23813,R,ugm-3
09-01-2022,08:00,1.07391,R,ugm-3,13.76255,R,ugm-3,15.40919,R,ugm-3
09-01-2022,09:00,1.17783,R,ugm-3,16.56854,R,ugm-3,18.37453,R,ugm-3
09-01-2022,10:00,2.66744,R,ugm-3,20.21519,R,ugm-3,24.30521,R,ugm-3
09-01-2022,11:00,3.98384,R,ugm-3,18.24969,R,ugm-3,24.35816,R,ugm-3
09-01-2022,12:00,4.15705,R,ugm-3,15.86600,R,ugm-3,22.24006,R,ugm-3
09-01-2022,13:00,6.27022,R,ugm-3,20.83350,R,ugm-3,30.44770,R,ugm-3
09-01-2022,14:00,3.42957,R,ugm-3,14.38679,R,ugm-3,19.64539,R,ugm-3
09-01-2022,15:00,2.90994,R,ugm-3,16.18964,R,ugm-3,20.65149,R,ugm-3
09-01-2022,16:00,4.57276,R,ugm-3,31.16731,R,ugm-3,38.17877,R,ugm-3
09-01-2022,17:00,3.67206,R,ugm-3,30.64206,R,ugm-3,36.27248,R,ugm-3
09-01-2022,18:00,4.19169,R,ugm-3,49.54364,R,ugm-3,55.97082,R,ugm-3
09-01-2022,19:00,8.62588,R,ugm-3,58.47155,R,ugm-3,71.69772,R,ugm-3
09-01-2022,20:00,3.81063,R,ugm-3,44.30315,R,ugm-3,50.14604,R,ugm-3
09-01-2022,21:00,3.49885,R,ugm-3,36.04404,R,ugm-3,41.40887,R,ugm-3
09-01-2022,22:00,2.56352,R,ugm-3,32.60657,R,ugm-3,36.53724,R,ugm-3
09-01-2022,23:00,1.21247,R,ugm-3,24.56421,R,ugm-3,26.42331,R,ugm-3
09-01-2022,24:00,1.31640,R,ugm-3,20.27456,R,ugm-3,22.29301,R,ugm-3
10-01-2022,01:00,0.97096,R,ugm-3,16.74287,R,ugm-3,18.23165,R,ugm-3
10-01-2022,02:00,0.55483,R,ugm-3,15.96761,R,ugm-3,16.81834,R,ugm-3
10-01-2022,03:00,0.69354,R,ugm-3,25.11808,R,ugm-3,26.18149,R,ugm-3
10-01-2022,04:00,0.79757,R,ugm-3,25.70055,R,ugm-3,26.92348,R,ugm-3
10-01-2022,05:00,0.97096,R,ugm-3,13.66892,R,ugm-3,15.15771,R,ugm-3
10-01-2022,06:00,2.35804,R,ugm-3,25.74582,R,ugm-3,29.36143,R,ugm-3
10-01-2022,07:00,10.47248,R,ugm-3,46.26922,R,ugm-3,62.32679,R,ugm-3
10-01-2022,08:00,10.88860,R,ugm-3,47.85713,R,ugm-3,64.55275,R,ugm-3
10-01-2022,09:00,21.81188,R,ugm-3,59.99277,R,ugm-3,93.43719,R,ugm-3
10-01-2022,10:00,25.17556,R,ugm-3,62.41406,R,ugm-3,101.01604,R,ugm-3
10-01-2022,11:00,19.00304,R,ugm-3,48.39991,R,ugm-3,77.53750,R,ugm-3
10-01-2022,12:00,8.35718,R,ugm-3,30.69800,R,ugm-3,43.51216,R,ugm-3
10-01-2022,13:00,7.14348,R,ugm-3,33.03597,R,ugm-3,43.98915,R,ugm-3
10-01-2022,14:00,6.27655,R,ugm-3,28.37635,R,ugm-3,38.00026,R,ugm-3
10-01-2022,15:00,5.37495,R,ugm-3,26.20786,R,ugm-3,34.44933,R,ugm-3
10-01-2022,16:00,6.10317,R,ugm-3,30.49717,R,ugm-3,39.85523,R,ugm-3
10-01-2022,17:00,5.75639,R,ugm-3,30.18090,R,ugm-3,39.00725,R,ugm-3
10-01-2022,18:00,4.05722,R,ugm-3,33.63425,R,ugm-3,39.85523,R,ugm-3
10-01-2022,19:00,3.22497,R,ugm-3,25.68852,R,ugm-3,30.63341,R,ugm-3
10-01-2022,20:00,2.21933,R,ugm-3,20.65861,R,ugm-3,24.06153,R,ugm-3
10-01-2022,21:00,1.62982,R,ugm-3,16.73960,R,ugm-3,19.23863,R,ugm-3
10-01-2022,22:00,1.10967,R,ugm-3,16.15919,R,ugm-3,17.86065,R,ugm-3
10-01-2022,23:00,1.31773,R,ugm-3,14.14420,R,ugm-3,16.16469,R,ugm-3
10-01-2022,24:00,1.10967,R,ugm-3,10.27630,R,ugm-3,11.97777,R,ugm-3
11-01-2022,01:00,0.69424,R,ugm-3,7.70569,R,ugm-3,8.77018,R,ugm-3
11-01-2022,02:00,0.60168,R,ugm-3,6.36235,R,ugm-3,7.28491,R,ugm-3
11-01-2022,03:00,0.59011,R,ugm-3,6.36241,R,ugm-3,7.26722,R,ugm-3
11-01-2022,04:00,0.55539,R,ugm-3,6.89304,R,ugm-3,7.74463,R,ugm-3
11-01-2022,05:00,1.38848,R,ugm-3,10.54888,R,ugm-3,12.67786,R,ugm-3
11-01-2022,06:00,4.61670,R,ugm-3,26.23368,R,ugm-3,33.31253,R,ugm-3
11-01-2022,07:00,2.70754,R,ugm-3,24.59912,R,ugm-3,28.75062,R,ugm-3
11-01-2022,08:00,2.95052,R,ugm-3,31.01636,R,ugm-3,35.54043,R,ugm-3
11-01-2022,09:00,19.29990,R,ugm-3,60.47836,R,ugm-3,90.07113,R,ugm-3
11-01-2022,10:00,23.63891,R,ugm-3,68.14757,R,ugm-3,104.39339,R,ugm-3
11-01-2022,11:00,6.87299,R,ugm-3,39.05904,R,ugm-3,49.59747,R,ugm-3
11-01-2022,12:00,4.51257,R,ugm-3,29.68217,R,ugm-3,36.60134,R,ugm-3
11-01-2022,13:00,6.45644,R,ugm-3,30.09651,R,ugm-3,39.99625,R,ugm-3
11-01-2022,14:00,7.46309,R,ugm-3,35.44891,R,ugm-3,46.89215,R,ugm-3
11-01-2022,15:00,5.58864,R,ugm-3,35.82989,R,ugm-3,44.39902,R,ugm-3
11-01-2022,16:00,7.11597,R,ugm-3,44.57451,R,ugm-3,55.48551,R,ugm-3
11-01-2022,17:00,7.74079,R,ugm-3,57.14305,R,ugm-3,69.01210,R,ugm-3
11-01-2022,18:00,16.73121,R,ugm-3,70.09283,R,ugm-3,95.74699,R,ugm-3
11-01-2022,19:00,21.72975,R,ugm-3,70.54446,R,ugm-3,103.86294,R,ugm-3
11-01-2022,20:00,65.36279,R,ugm-3,69.36467,R,ugm-3,169.58622,R,ugm-3
11-01-2022,21:00,60.19070,R,ugm-3,62.86675,R,ugm-3,155.15786,R,ugm-3
11-01-2022,22:00,135.16873,R,ugm-3,61.47229,R,ugm-3,268.72811,R,ugm-3
11-01-2022,23:00,174.70576,R,ugm-3,61.69279,R,ugm-3,329.57121,R,ugm-3
11-01-2022,24:00,65.39751,R,ugm-3,53.29172,R,ugm-3,153.56650,R,ugm-3
12-01-2022,01:00,46.42203,R,ugm-3,47.46319,R,ugm-3,118.64264,R,ugm-3
12-01-2022,02:00,67.75670,R,ugm-3,51.24229,R,ugm-3,155.13445,R,ugm-3
12-01-2022,03:00,23.41950,R,ugm-3,44.25934,R,ugm-3,80.16873,R,ugm-3
12-01-2022,04:00,7.47061,R,ugm-3,40.09743,R,ugm-3,51.55221,R,ugm-3
12-01-2022,05:00,2.84926,R,ugm-3,37.14905,R,ugm-3,41.51785,R,ugm-3
12-01-2022,06:00,17.89472,R,ugm-3,50.02286,R,ugm-3,77.46104,R,ugm-3
12-01-2022,07:00,68.66013,R,ugm-3,59.20123,R,ugm-3,164.47862,R,ugm-3
12-01-2022,08:00,189.92725,R,ugm-3,75.96567,R,ugm-3,367.18339,R,ugm-3
12-01-2022,09:00,193.74942,R,ugm-3,87.25376,R,ugm-3,384.33207,R,ugm-3
12-01-2022,10:00,211.64414,R,ugm-3,81.21160,R,ugm-3,405.72809,R,ugm-3
12-01-2022,11:00,117.72293,R,ugm-3,81.76788,R,ugm-3,262.27385,R,ugm-3
12-01-2022,12:00,40.23706,R,ugm-3,65.03434,R,ugm-3,126.73030,R,ugm-3
12-01-2022,13:00,30.19517,R,ugm-3,51.65590,R,ugm-3,97.95451,R,ugm-3
12-01-2022,14:00,19.00662,R,ugm-3,42.10621,R,ugm-3,71.24929,R,ugm-3
12-01-2022,15:00,32.97493,R,ugm-3,55.94145,R,ugm-3,106.50230,R,ugm-3
12-01-2022,16:00,23.66273,R,ugm-3,60.13250,R,ugm-3,96.41484,R,ugm-3
12-01-2022,17:00,27.24167,R,ugm-3,63.88285,R,ugm-3,105.65283,R,ugm-3
12-01-2022,18:00,29.11801,R,ugm-3,58.93525,R,ugm-3,103.58225,R,ugm-3
12-01-2022,19:00,31.96727,R,ugm-3,60.93748,R,ugm-3,109.95327,R,ugm-3
12-01-2022,20:00,23.66273,R,ugm-3,59.60158,R,ugm-3,95.88392,R,ugm-3
12-01-2022,21:00,15.21920,R,ugm-3,50.56811,R,ugm-3,73.90389,R,ugm-3
12-01-2022,22:00,16.99130,R,ugm-3,53.85031,R,ugm-3,79.90327,R,ugm-3
12-01-2022,23:00,27.65863,R,ugm-3,55.22664,R,ugm-3,97.63595,R,ugm-3
12-01-2022,24:00,17.61674,R,ugm-3,46.62647,R,ugm-3,73.63843,R,ugm-3
13-01-2022,01:00,10.29547,R,ugm-3,45.28747,R,ugm-3,61.07365,R,ugm-3
13-01-2022,02:00,2.68981,R,ugm-3,31.44294,R,ugm-3,35.56725,R,ugm-3
13-01-2022,03:00,2.53909,R,ugm-3,29.84963,R,ugm-3,33.74284,R,ugm-3
13-01-2022,04:00,2.05214,R,ugm-3,26.92972,R,ugm-3,30.07629,R,ugm-3
13-01-2022,05:00,1.94779,R,ugm-3,23.52945,R,ugm-3,26.51602,R,ugm-3
13-01-2022,06:00,7.16509,R,ugm-3,35.93482,R,ugm-3,46.92114,R,ugm-3
13-01-2022,07:00,19.51270,R,ugm-3,49.73529,R,ugm-3,79.65435,R,ugm-3
13-01-2022,08:00,51.40780,R,ugm-3,61.46098,R,ugm-3,140.28517,R,ugm-3
13-01-2022,09:00,88.48541,R,ugm-3,72.52021,R,ugm-3,208.19595,R,ugm-3
13-01-2022,10:00,54.01645,R,ugm-3,65.91010,R,ugm-3,148.73417,R,ugm-3
13-01-2022,11:00,30.19078,R,ugm-3,56.63705,R,ugm-3,102.92893,R,ugm-3
13-01-2022,12:00,33.52985,R,ugm-3,56.24652,R,ugm-3,107.65824,R,ugm-3
13-01-2022,13:00,38.60802,R,ugm-3,60.89447,R,ugm-3,120.09261,R,ugm-3
13-01-2022,14:00,26.64301,R,ugm-3,54.37182,R,ugm-3,95.22387,R,ugm-3
13-01-2022,15:00,22.46917,R,ugm-3,52.42891,R,ugm-3,86.88116,R,ugm-3
13-01-2022,16:00,38.01673,R,ugm-3,65.99903,R,ugm-3,124.29054,R,ugm-3
13-01-2022,17:00,51.16433,R,ugm-3,68.68915,R,ugm-3,147.14002,R,ugm-3
13-01-2022,18:00,91.05928,R,ugm-3,75.00340,R,ugm-3,214.62569,R,ugm-3
13-01-2022,19:00,132.10204,R,ugm-3,69.40829,R,ugm-3,271.96194,R,ugm-3
13-01-2022,20:00,126.15432,R,ugm-3,66.89072,R,ugm-3,260.32464,R,ugm-3
13-01-2022,21:00,92.79838,R,ugm-3,58.09575,R,ugm-3,200.38462,R,ugm-3
13-01-2022,22:00,79.51166,R,ugm-3,54.60933,R,ugm-3,176.52551,R,ugm-3
13-01-2022,23:00,75.02478,R,ugm-3,46.98236,R,ugm-3,162.01875,R,ugm-3
13-01-2022,24:00,41.56449,R,ugm-3,45.09595,R,ugm-3,108.82729,R,ugm-3
14-01-2022,01:00,40.48054,R,ugm-3,37.63443,R,ugm-3,99.70372,R,ugm-3
14-01-2022,02:00,53.85026,R,ugm-3,40.46486,R,ugm-3,123.03411,R,ugm-3
14-01-2022,03:00,41.11885,R,ugm-3,42.36420,R,ugm-3,105.41222,R,ugm-3
14-01-2022,04:00,7.69455,R,ugm-3,41.91847,R,ugm-3,53.71662,R,ugm-3
14-01-2022,05:00,8.63461,R,ugm-3,47.07198,R,ugm-3,60.31153,R,ugm-3
14-01-2022,06:00,28.48029,R,ugm-3,47.17043,R,ugm-3,90.83959,R,ugm-3
14-01-2022,07:00,99.47211,R,ugm-3,53.62241,R,ugm-3,206.14418,R,ugm-3
14-01-2022,08:00,189.71771,R,ugm-3,67.88805,R,ugm-3,358.78448,R,ugm-3
14-01-2022,09:00,338.14249,R,ugm-3,91.39188,R,ugm-3,609.86979,R,ugm-3
14-01-2022,10:00,104.27685,R,ugm-3,82.84637,R,ugm-3,242.73530,R,ugm-3
14-01-2022,11:00,68.45018,R,ugm-3,71.51160,R,ugm-3,176.46708,R,ugm-3
14-01-2022,12:00,76.38845,R,ugm-3,76.25251,R,ugm-3,193.37984,R,ugm-3
14-01-2022,13:00,49.61419,R,ugm-3,73.64110,R,ugm-3,149.71514,R,ugm-3
14-01-2022,14:00,27.40096,R,ugm-3,62.22793,R,ugm-3,104.24216,R,ugm-3
14-01-2022,15:00,27.74913,R,ugm-3,68.12944,R,ugm-3,110.67751,R,ugm-3
14-01-2022,16:00,74.50833,R,ugm-3,84.71972,R,ugm-3,198.96424,R,ugm-3
14-01-2022,17:00,82.06362,R,ugm-3,77.01760,R,ugm-3,202.84673,R,ugm-3
14-01-2022,18:00,171.50843,R,ugm-3,90.22415,R,ugm-3,353.20008,R,ugm-3
14-01-2022,19:00,168.27045,R,ugm-3,80.98865,R,ugm-3,338.99974,R,ugm-3
14-01-2022,20:00,129.90214,R,ugm-3,75.89114,R,ugm-3,275.07165,R,ugm-3
14-01-2022,21:00,33.45912,R,ugm-3,69.05388,R,ugm-3,120.35714,R,ugm-3
14-01-2022,22:00,13.57862,R,ugm-3,62.14798,R,ugm-3,82.96825,R,ugm-3
14-01-2022,23:00,31.43973,R,ugm-3,56.88620,R,ugm-3,105.09311,R,ugm-3
14-01-2022,24:00,38.22904,R,ugm-3,53.60283,R,ugm-3,112.21987,R,ugm-3
15-01-2022,01:00,23.74580,R,ugm-3,48.47634,R,ugm-3,84.88606,R,ugm-3
15-01-2022,02:00,95.07613,R,ugm-3,55.75205,R,ugm-3,201.53341,R,ugm-3
15-01-2022,03:00,164.15270,R,ugm-3,63.00570,R,ugm-3,314.70299,R,ugm-3
15-01-2022,04:00,168.64860,R,ugm-3,59.03979,R,ugm-3,317.63071,R,ugm-3
15-01-2022,05:00,122.95769,R,ugm-3,52.28556,R,ugm-3,240.81805,R,ugm-3
15-01-2022,06:00,61.68796,R,ugm-3,51.90545,R,ugm-3,146.49233,R,ugm-3
15-01-2022,07:00,72.94514,R,ugm-3,52.79652,R,ugm-3,164.64417,R,ugm-3
15-01-2022,08:00,139.40781,R,ugm-3,58.09619,R,ugm-3,271.85186,R,ugm-3
15-01-2022,09:00,89.18615,R,ugm-3,62.54751,R,ugm-3,199.29770,R,ugm-3
15-01-2022,10:00,62.28044,R,ugm-3,60.04629,R,ugm-3,155.54163,R,ugm-3
15-01-2022,11:00,48.20025,R,ugm-3,57.25571,R,ugm-3,131.16173,R,ugm-3
15-01-2022,12:00,41.26471,R,ugm-3,55.22103,R,ugm-3,118.49270,R,ugm-3
15-01-2022,13:00,28.33464,R,ugm-3,52.15744,R,ugm-3,95.60328,R,ugm-3
15-01-2022,14:00,27.77701,R,ugm-3,47.52965,R,ugm-3,90.12046,R,ugm-3
15-01-2022,15:00,30.49546,R,ugm-3,49.11038,R,ugm-3,95.86943,R,ugm-3
15-01-2022,16:00,30.18179,R,ugm-3,49.75103,R,ugm-3,96.02913,R,ugm-3
15-01-2022,17:00,36.45514,R,ugm-3,52.16228,R,ugm-3,108.05938,R,ugm-3